Pasco, WA
on Friday, November 30, 2012

Friday
Previous Day Next Day
Daily Summary
 ActualAverageRecord
Temperature
Mean Temperature °F 36°F  
Max Temperature 51°F 43°F 60°F (1995)
Min Temperature 32°F 29°F 16°F (2006)
Degree Days
Heating Degree Days 23 29  
Month to date heating degree days 653 710  
Since 1 July heating degree days 1097 1229  
Cooling Degree Days 0 0  
Month to date cooling degree days 0 0  
Year to date cooling degree days 788 710  
Moisture
Dew Point 36°F   
Average Humidity 90    
Maximum Humidity 100    
Minimum Humidity 80    
Precipitation
Precipitation 0.01 in in 0.44 in (1973)
Month to date precipitation 1.10  
Year to date precipitation 8.56  
Snow
Snow 0.00 in in in ()
Snow Depth 0.00 in   
Wind
Wind Speed 2 mph   
Max Wind Speed 10 mph   
Max Gust Speed 13 mph   
Visibility 6 miles   
Events     

Key: T is trace of precipitation, MM is missing value
Source: NWS Daily Summary
Time(PST)TemperatureDew PointHumidity Pressure Visibility Wind DirectionWind SpeedGust SpeedPrecipitationEvents Conditions
12:53 AM 36.0°F 35.1°F 97% 29.61 in 7.0 miles Calm Calm - 0.00 in   Mostly Cloudy
1:21 AM 35.6°F 35.6°F 100% 29.59 in 6.0 miles Calm Calm - N/A   Overcast
1:53 AM 36.0°F 35.1°F 97% 29.60 in 6.0 miles NW 3.5 mph - N/A   Mostly Cloudy
2:07 AM 35.6°F 35.6°F 100% 29.58 in 6.0 miles Calm Calm - N/A   Mostly Cloudy
2:53 AM 35.1°F 35.1°F 100% 29.60 in 5.0 miles NW 4.6 mph - N/A   Clear
3:13 AM 35.6°F 35.6°F 100% 29.58 in 5.0 miles Calm Calm - N/A   Mostly Cloudy
3:25 AM 35.6°F 33.8°F 93% 29.58 in 5.0 miles Variable 3.5 mph - N/A   Mostly Cloudy
3:49 AM 35.6°F 35.6°F 100% 29.57 in 6.0 miles Calm Calm - N/A   Scattered Clouds
3:53 AM 35.1°F 35.1°F 100% 29.57 in 5.0 miles Calm Calm - N/A   Scattered Clouds
4:11 AM 33.8°F 33.8°F 100% 29.56 in 2.0 miles NNW 3.5 mph - N/A   Clear
4:27 AM 33.8°F 32.0°F 93% 29.56 in 1.2 miles Calm Calm - N/A   Clear
4:53 AM 33.1°F 32.0°F 96% 29.58 in 2.5 miles WSW 3.5 mph - N/A   Partly Cloudy
4:59 AM 33.8°F 33.8°F 100% 29.57 in 4.0 miles Calm Calm - N/A   Mostly Cloudy
5:11 AM 33.8°F 32.0°F 93% 29.56 in 1.8 miles Calm Calm - N/A   Mostly Cloudy
5:35 AM 32.0°F 32.0°F 100% 29.56 in 1.8 miles NW 3.5 mph - N/A   Overcast
5:39 AM 32.0°F 32.0°F 100% 29.55 in 3.0 miles NNW 5.8 mph - N/A   Overcast
5:53 AM 33.1°F 32.0°F 96% 29.57 in 3.0 miles NNW 3.5 mph - N/A   Overcast
6:37 AM 33.8°F 32.0°F 93% 29.56 in 5.0 miles Calm Calm - N/A   Mostly Cloudy
6:53 AM 33.1°F 32.0°F 96% 29.57 in 6.0 miles Calm Calm - N/A   Overcast
7:21 AM 33.8°F 32.0°F 93% 29.57 in 2.5 miles NW 3.5 mph - N/A   Mostly Cloudy
7:49 AM 33.8°F 33.8°F 100% 29.57 in 2.5 miles Calm Calm - N/A   Overcast
7:53 AM 33.1°F 33.1°F 100% 29.58 in 3.0 miles Calm Calm - N/A   Overcast
8:53 AM 36.0°F 36.0°F 100% 29.61 in 3.0 miles Calm Calm - N/A   Overcast
9:53 AM 39.0°F 37.0°F 93% 29.62 in 4.0 miles ENE 5.8 mph - N/A   Clear
10:53 AM 42.1°F 39.0°F 89% 29.62 in 10.0 miles SE 3.5 mph - N/A   Scattered Clouds
11:53 AM 45.0°F 39.9°F 82% 29.60 in 10.0 miles SE 8.1 mph - N/A   Clear
12:53 PM 46.0°F 41.0°F 83% 29.61 in 10.0 miles SE 3.5 mph - 0.01 in   Clear
1:53 PM 48.9°F 43.0°F 80% 29.60 in 9.0 miles Calm Calm - N/A   Scattered Clouds
2:53 PM 50.0°F 44.1°F 80% 29.59 in 10.0 miles SSE 8.1 mph - N/A   Overcast
4:53 PM 46.9°F 44.1°F 90% 29.58 in 10.0 miles Calm Calm - 0.00 in   Mostly Cloudy
5:53 PM 46.0°F 43.0°F 89% 29.57 in 10.0 miles Calm Calm - N/A   Clear
6:53 PM 44.1°F 42.1°F 93% 29.57 in 7.0 miles Calm Calm - N/A   Partly Cloudy
9:53 PM 45.0°F 43.0°F 93% 29.57 in 10.0 miles NNE 3.5 mph - N/A   Mostly Cloudy
10:53 PM 43.0°F 42.1°F 97% 29.55 in 10.0 miles Calm Calm - N/A   Overcast
11:53 PM 44.1°F 42.1°F 93% 29.55 in 10.0 miles NE 6.9 mph - N/A   Clear
Moon Phase
Nov. 30 Dec. 06 Dec. 13 Dec. 20 Dec. 28
Sunrise:07:18 AM (PST) Moon Rise:06:12 PM (PST)
Sunset:04:12 PM (PST) Moon Set:08:53 AM (PST)

Copyright © 2014 The Weather Underground, Inc.